Vineland Station Rcs, Ontario

12:18 AM EST on December 04, 2016 (GMT -0500)
Vineland (AU8)

Weather History for CXVN - January, 2013

Change the Weather History Date:

Saturday, January 12, 2013

  Actual Average (CYSN) Record (CYSN)
Temperature  
Mean Temperature 52 °F -  
Max Temperature 58 °F 27 °F 59 °F (2013)
Min Temperature 46 °F 18 °F 12 °F (1997)
Degree Days  
Heating Degree Days 13    
Growing Degree Days 2 (Base 50)    
Moisture  
Dew Point 46 °F    
Average Humidity 81    
Maximum Humidity 88    
Minimum Humidity 66    
Precipitation  
Precipitation 0.00 in - - ()
Sea Level Pressure  
Sea Level Pressure 29.91 in    
Wind  
Wind Speed 10 mph ()    
Max Wind Speed 20 mph    
Max Gust Speed 28 mph    
Averages and records for this station are not official NWS values.
T = Trace of Precipitation, MM = Missing Value Source: Averaged Metar Reports

Daily Weather History Graph

Daily Weather History Graph

Search for Another Location

Airport or City:

Trip Planner

Search our weather history database for the weather conditions in past years. The results will help you decide how hot, cold, wet, or windy it might be!

Date:

Astronomy

Jan. 12, 2013 Rise Set
Actual Time 7:47 AM EST 5:04 PM EST
Civil Twilight 7:16 AM EST 5:36 PM EST
Nautical Twilight 6:40 AM EST 6:11 PM EST
Astronomical Twilight 6:06 AM EST 6:45 PM EST
Moon 8:02 AM EST (1/12) 6:34 PM EST (1/12)
Length of Visible Light 10h 20m
Length of Day
9h 16m
New Moon, 1% of the Moon is Illuminated
Jan 12
New Moon
Jan 18
First Quarter
Jan 26
Full
Feb 3
Last Quarter
Feb 10
New

Hourly Weather History & Observations

Time (EST) Temp. Dew Point Humidity Pressure Visibility Wind Dir Wind Speed Gust Speed Precip Events Conditions
12:00 AM 47.5 °F 44.1 °F 88% 29.90 in - SW 10.4 mph - N/A   Unknown
1:00 AM 47 °F 44 °F 86% 29.90 in - SSW 8.1 mph - -  
1:00 AM 47.3 °F 44.1 °F 88% 29.90 in - SSW 8.1 mph - N/A   Unknown
2:00 AM 47.1 °F 43.9 °F 88% 29.91 in - SW 10.4 mph - N/A   Unknown
3:00 AM 47.5 °F 44.1 °F 88% 29.91 in - SSW 8.1 mph - N/A   Unknown
4:00 AM 46.8 °F 43.3 °F 88% 29.90 in - South 5.8 mph - N/A   Unknown
5:00 AM 48.2 °F 43.5 °F 84% 29.90 in - SSW 10.4 mph - N/A   Unknown
6:00 AM 47.1 °F 43.0 °F 86% 29.90 in - SSW 10.4 mph - N/A   Unknown
7:00 AM 47 °F 42 °F 79% 29.91 in - SW 10.4 mph - -  
7:00 AM 46.8 °F 42.4 °F 85% 29.91 in - SW 10.4 mph - N/A   Unknown
8:00 AM 46.6 °F 42.3 °F 85% 29.90 in - SW 9.2 mph - N/A   Unknown
9:00 AM 50.5 °F 45.1 °F 82% 29.90 in - SW 15.0 mph 21.9 mph N/A   Unknown
10:00 AM 52.2 °F 46.8 °F 82% 29.90 in - SW 15.0 mph - N/A   Unknown
11:00 AM 57.4 °F 49.5 °F 75% 29.91 in - SW 16.1 mph 21.9 mph N/A   Unknown
12:00 PM 57.9 °F 49.5 °F 73% 29.91 in - WSW 16.1 mph 25.3 mph N/A   Unknown
1:00 PM 58 °F 50 °F 66% 29.88 in - WSW 15.0 mph - -  
1:00 PM 58.3 °F 49.6 °F 73% 29.88 in - WSW 15.0 mph 24.2 mph N/A   Unknown
2:00 PM 57.4 °F 49.1 °F 74% 29.87 in - SW 17.3 mph 24.2 mph N/A   Unknown
3:00 PM 57.7 °F 49.1 °F 73% 29.88 in - SW 19.6 mph 27.6 mph N/A   Unknown
4:00 PM 57.4 °F 49.1 °F 74% 29.91 in - SW 16.1 mph 23.0 mph N/A   Unknown
5:00 PM 55.9 °F 48.7 °F 77% 29.93 in - SW 13.8 mph - N/A   Unknown
6:00 PM 54.0 °F 48.4 °F 81% 29.93 in - SW 10.4 mph - N/A   Unknown
7:00 PM 54 °F 49 °F 76% 29.94 in - SW 9.2 mph - -  
7:00 PM 54.0 °F 48.6 °F 82% 29.94 in - SW 9.2 mph - N/A   Unknown
8:00 PM 54.1 °F 48.7 °F 82% 29.94 in - SW 11.5 mph - N/A   Unknown
9:00 PM 54.1 °F 48.9 °F 82% 29.94 in - SW 11.5 mph - N/A   Unknown
10:00 PM 51.3 °F 47.1 °F 86% 29.93 in - South 3.5 mph - N/A   Unknown
11:00 PM 50.5 °F 46.8 °F 87% 29.92 in - SSW 5.8 mph - N/A   Unknown